Погода в Пришибе

Россия / Астраханская область     47°40′40″N   46°28′18″E
темп.,
°C
ветер,
м/с
пор.,
м/с
влажн.,
%
обл.,
%
осадки,
мм/ч
давл.,
гПа
погр.,
м
24 сентября, пт
пт2401:00+11ссз3685100 0.0 1011129
04:00+11с3585100 0.0 1012112
07:00+12с3679100 0.1 1011312
10:00+11с6989100 5.6 1010367
13:00+11ссз6789100 5.4 1010397
16:00+11ссз6990100 6.4 1010466
19:00+12зсз6985100 0.0 1011501
22:00+12зсз5107799 0.0 1011406
25 сентября, сб
сб2501:00+10з48815 0.0 1011168
04:00+9зюз358331 0.0 101170
07:00+9зюз3589100 0.0 101184
10:00+15юз3461100 0.0 1012429
13:00+15юз3458100 0.0 1011397
16:00+16з585777 0.0 10121335
19:00+13з61075100 0.0 1013521
22:00+13юз478343 0.8 1013367
26 сентября, вс
вс2601:00+11юз5984100 0.0 1013260
04:00+11зюз5108029 0.0 1013276
07:00+10з478811 0.0 1014173
10:00+13з5875100 0.0 1014423
13:00+17з795098 0.0 10131454
16:00+16з8114897 0.0 10121174
19:00+13зюз61075100 0.3 1011805
22:00+13зюз7128579 1.7 1009759
27 сентября, пн
пн2701:00+13зюз6128594 1.1 1007412
04:00+12зсз914813 1.2 1007554
07:00+10зсз813875 0.0 1009558
10:00+12зсз9116817 0.0 1010920
13:00+15зсз9105097 0.1 10111835
16:00+15зсз8104897 0.3 10121870
19:00+13сз5860100 0.0 1014640
22:00+12зсз5869100 0.0 1015471
28 сентября, вт
вт2801:00+12зсз4676100 0.1 1015280
04:00+12сз4678100 0.1 1017264
07:00+10с47855 0.0 1018213
10:00+13ссв557242 0.0 1020678
13:00+15ссв545585 0.0 10211319
16:00+13ссв656099 0.0 1022854
19:00+12ссв565532 0.0 1024882
22:00+10ссв336299 0.0 102556